Weather History for Bangkok (Don Mueang), Thailand

Change the Weather History Date:

Saturday, December 22, 2012

  Actual Average Record
Temperature  
Mean Temperature 85 °F -  
Max Temperature 92 °F 87 °F 93 °F (1997)
Min Temperature 78 °F 72 °F 60 °F (1999)
Cooling Degree Days 20    
Growing Degree Days 35 (Base 50)    
Moisture  
Dew Point 70 °F    
Average Humidity 58    
Maximum Humidity 84    
Minimum Humidity 35    
Precipitation  
Precipitation 0.00 in 0.01 in - ()
Sea Level Pressure  
Sea Level Pressure 29.81 in    
Wind  
Wind Speed 5 mph ()    
Max Wind Speed 12 mph    
Max Gust Speed -    
Visibility 5.5 miles    
Events      
Averages and records for this station are not official NWS values.
T = Trace of Precipitation, MM = Missing Value Source: Averaged Metar Reports

Daily Weather History Graph

Daily Weather History Graph

Search for Another Location

Airport:

Trip Planner

Search our weather history database for the weather conditions in past years. The results will help you decide how hot, cold, wet, or windy it might be!

Date:

Astronomy

Dec. 22, 2012 Rise Set
Actual Time 6:37 AM ICT 5:55 PM ICT
Civil Twilight 6:13 AM ICT 6:18 PM ICT
Nautical Twilight 5:47 AM ICT 6:45 PM ICT
Astronomical Twilight 5:20 AM ICT 7:11 PM ICT
Moon 1:26 PM ICT (12/22) 1:26 AM ICT (12/22)
Length of Visible Light 12h 04m
Length of Day
11h 18m
Waxing Gibbous, 69% of the Moon is Illuminated
Dec 22
Waxing Gibbous
Dec 28
Full
Jan 5
Last Quarter
Jan 12
New
Jan 19
First Quarter

Hourly Weather History & Observations

Time (ICT) Temp. Heat Index Dew Point Humidity Pressure Visibility Wind Dir Wind Speed Gust Speed Precip Events Conditions
12:00 AM 84.2 °F 90.9 °F 73.4 °F 70% 29.83 in 6.2 mi ESE 3.5 mph - N/A   Mostly Cloudy
12:30 AM 84.2 °F 90.9 °F 73.4 °F 70% 29.83 in 6.2 mi East 3.5 mph - N/A   Mostly Cloudy
1:00 AM 83 °F - 73 °F 64% 29.85 in 5 mi East 3.5 mph - -   Mist
1:30 AM 82.4 °F 88.2 °F 73.4 °F 74% 29.83 in 6.2 mi East 3.5 mph - N/A   Mostly Cloudy
2:00 AM 82.4 °F 88.2 °F 73.4 °F 74% 29.83 in 6.2 mi East 3.5 mph - N/A   Mostly Cloudy
2:30 AM 82.4 °F 88.2 °F 73.4 °F 74% 29.83 in 6.2 mi East 3.5 mph - N/A   Mostly Cloudy
3:00 AM 82.4 °F 88.2 °F 73.4 °F 74% 29.80 in 5.0 mi ESE 3.5 mph - N/A   Mostly Cloudy
3:30 AM 80.6 °F 85.4 °F 73.4 °F 79% 29.77 in 4.3 mi NE 4.6 mph - N/A   Scattered Clouds
4:00 AM 80.6 °F 85.4 °F 73.4 °F 79% 29.77 in 4.3 mi NE 4.6 mph - N/A   Scattered Clouds
4:30 AM 80.6 °F 86.2 °F 75.2 °F 84% 29.77 in 4.3 mi NE 3.5 mph - N/A   Scattered Clouds
5:00 AM 78.8 °F - 71.6 °F 78% 29.77 in 4.3 mi North 4.6 mph - N/A   Mostly Cloudy
5:30 AM 78.8 °F - 71.6 °F 78% 29.77 in 4.3 mi North 3.5 mph - N/A   Mostly Cloudy
6:00 AM 80.6 °F 85.4 °F 73.4 °F 79% 29.77 in 3.7 mi North 6.9 mph - N/A   Mostly Cloudy
6:30 AM 80.6 °F 85.4 °F 73.4 °F 79% 29.77 in 3.1 mi NNE 3.5 mph - N/A   Mist
7:00 AM 79 °F - 74 °F 80% 29.81 in 3 mi North 6.9 mph - -   Mist
7:00 AM 78.8 °F - 73.4 °F 83% 29.80 in 3.1 mi North 6.9 mph - N/A   Mist
7:30 AM 78.8 °F - 73.4 °F 83% 29.80 in 3.1 mi NNW 3.5 mph - N/A   Scattered Clouds
8:00 AM 80.6 °F 86.2 °F 75.2 °F 84% 29.80 in 3.7 mi North 3.5 mph - N/A   Scattered Clouds
8:30 AM 82.4 °F 86.3 °F 69.8 °F 66% 29.86 in 5.0 mi NNE 4.6 mph - N/A   Scattered Clouds
9:00 AM 86.0 °F 89.4 °F 68.0 °F 55% 29.86 in 5.0 mi North 2.3 mph - N/A   Scattered Clouds
9:30 AM 86.0 °F 89.4 °F 68.0 °F 55% 29.86 in 5.0 mi NNE 8.1 mph - N/A   Scattered Clouds
10:00 AM 87.8 °F 92.6 °F 69.8 °F 55% 29.86 in 5.0 mi ENE 5.8 mph - N/A   Scattered Clouds
10:30 AM 91.4 °F 95.4 °F 68.0 °F 46% 29.86 in 5.6 mi East 5.8 mph - N/A   Scattered Clouds
11:00 AM 89.6 °F 91.1 °F 64.4 °F 43% 29.86 in 6.2 mi NNE 6.9 mph - N/A   Scattered Clouds
11:30 AM 91.4 °F 94.0 °F 66.2 °F 43% 29.83 in 6.2 mi ESE 6.9 mph - N/A   Scattered Clouds
12:00 PM 91.4 °F 95.4 °F 68.0 °F 46% 29.83 in 6.2 mi East 10.4 mph - N/A   Scattered Clouds
12:30 PM 91.4 °F 95.4 °F 68.0 °F 46% 29.80 in 6.2 mi ESE 10.4 mph - N/A   Scattered Clouds
1:00 PM 92 °F - 67 °F 35% 29.81 in 6 mi ESE 8.1 mph - -   Scattered Clouds
1:00 PM 91.4 °F 95.4 °F 68.0 °F 46% 29.80 in 6.2 mi ESE 8.1 mph - N/A   Scattered Clouds
1:30 PM 93.2 °F 97.7 °F 68.0 °F 44% 29.77 in 6.2 mi East 11.5 mph - N/A   Scattered Clouds
2:00 PM 91.4 °F 94.0 °F 66.2 °F 43% 29.77 in 6.2 mi East 10.4 mph - N/A   Scattered Clouds
2:30 PM 91.4 °F 95.4 °F 68.0 °F 46% 29.74 in 6.2 mi East 9.2 mph - N/A   Scattered Clouds
3:00 PM 91.4 °F 95.4 °F 68.0 °F 46% 29.74 in 6.2 mi ESE 11.5 mph - N/A   Scattered Clouds
3:30 PM 93.2 °F 97.7 °F 68.0 °F 44% 29.74 in 6.2 mi ESE 9.2 mph - N/A   Scattered Clouds
4:00 PM 93.2 °F 97.7 °F 68.0 °F 44% 29.74 in 6.2 mi ESE 8.1 mph - N/A   Scattered Clouds
4:30 PM 91.4 °F 95.4 °F 68.0 °F 46% 29.77 in 6.2 mi East 6.9 mph - N/A   Scattered Clouds
5:00 PM 91.4 °F 94.0 °F 66.2 °F 43% 29.77 in 6.2 mi ESE 4.6 mph - N/A   Scattered Clouds
5:30 PM 91.4 °F 95.4 °F 68.0 °F 46% 29.77 in 6.2 mi ESE 9.2 mph - N/A   Scattered Clouds
6:00 PM 89.6 °F 93.4 °F 68.0 °F 49% 29.77 in 6.2 mi ENE 5.8 mph - N/A   Scattered Clouds
6:30 PM 89.6 °F 92.2 °F 66.2 °F 46% 29.77 in 6.2 mi ENE 4.6 mph - N/A   Scattered Clouds
7:00 PM 90 °F - 66 °F 35% 29.81 in 6 mi ENE 3.5 mph - -   Scattered Clouds
7:00 PM 91.4 °F 94.0 °F 66.2 °F 43% 29.80 in 6.2 mi ENE 3.5 mph - N/A   Scattered Clouds
7:30 PM 89.6 °F 92.2 °F 66.2 °F 46% 29.80 in 6.2 mi ENE 3.5 mph - N/A   Scattered Clouds
8:00 PM 87.8 °F 91.4 °F 68.0 °F 52% 29.83 in 6.2 mi NNE 4.6 mph - N/A   Scattered Clouds
8:30 PM 87.8 °F 90.4 °F 66.2 °F 49% 29.83 in 6.2 mi ENE 3.5 mph - N/A   Scattered Clouds
9:00 PM 87.8 °F 91.4 °F 68.0 °F 52% 29.83 in 6.2 mi ENE 3.5 mph - N/A   Scattered Clouds
9:30 PM 86.0 °F 89.4 °F 68.0 °F 55% 29.83 in 6.2 mi ENE 3.5 mph - N/A   Scattered Clouds
10:00 PM 87.8 °F 91.4 °F 68.0 °F 52% 29.83 in 6.2 mi ENE 4.6 mph - N/A   Scattered Clouds
10:30 PM 87.8 °F 91.4 °F 68.0 °F 52% 29.86 in 6.2 mi ENE 4.6 mph - N/A   Scattered Clouds
11:00 PM 86.0 °F 88.2 °F 66.2 °F 51% 29.86 in 6.2 mi ENE 5.8 mph - N/A   Scattered Clouds
11:30 PM 84.2 °F 87.3 °F 68.0 °F 58% 29.86 in 6.2 mi ENE 6.9 mph - N/A   Scattered Clouds